sat.trackr.live / text

‹ back to catalog

ONEWEB-0285

NORAD 49075 · 2021-075A

PAYLOAD ACTIVE UNKNOWN

§ Identity

Operator
Country
UK
Launch date
2021-08-21
Launch site
TYMSC
Launch vehicle
Mass (kg)
RCS (m²)

Purposes: comms

External: N2YO · Heavens-Above · Gunter

§ Orbital elements

Epoch: 2026-05-25T02:42:33.053184Z

Period
109.72 min
Inclination
87.8959°
Eccentricity
0.0001723
Mean motion
13.12441504 rev/d
Perigee alt
1,212.4 km
Apogee alt
1,215.0 km
Semi-major
7,591.9 km
B*
1.1771e-3
RAAN
355.2506°
Arg perigee
85.6280°
Mean anomaly
274.5046°
Rev number
23,218

§ Raw data

ONEWEB-02851 49075U 21075A   26145.11288256  .00000436  00000+0  11771-2 0  99922 49075  87.8959 355.2506 0001723  85.6280 274.5046 13.12441504232180

JSON: /api/v1/satellites/49075 · /tle

For live sub-satellite position, see the globe view (requires WebGL).

§ Visibility from observer

Set your observer location to see the next 7 days of passes ≥ 10°. The values pass through the URL so the page stays shareable.

No JS? Fill the form by hand. The geolocation button needs JavaScript.